Weather History for KCLE - October, 2012

Change the Weather History Date:

Wednesday, October 10, 2012

  Actual Average Record
Temperature  
Mean Temperature 48 °F 56 °F  
Max Temperature 53 °F 64 °F 86 °F (1949)
Min Temperature 42 °F 47 °F 30 °F (1895)
Degree Days  
Heating Degree Days 17 10  
Month to date heating degree days 117 85  
Since 1 July heating degree days 256 188  
Cooling Degree Days 0 1  
Month to date cooling degree days 1 10  
Year to date cooling degree days 1087 814  
Moisture  
Dew Point 38 °F    
Average Humidity 69    
Maximum Humidity 93    
Minimum Humidity 45    
Precipitation  
Precipitation 0.07 in 0.11 in 0.60 in (1954)
Month to date precipitation 2.16 1.07  
Year to date precipitation 31.69 30.42  
Snow  
Snow 0.00 in 0.00 in - ()
Month to date snowfall 0.0 0.0  
Since 1 July snowfall 0.0 0.0  
Since 1 September snowfall 0.0 0.0  
Snow Depth 0.00 in    
Sea Level Pressure  
Sea Level Pressure 30.00 in    
Wind  
Wind Speed 14 mph (WSW)    
Max Wind Speed 24 mph    
Max Gust Speed 33 mph    
Visibility 10 miles    
Events Rain    
T = Trace of Precipitation, MM = Missing Value Source: NWS Daily Summary

Daily Weather History Graph

Daily Weather History Graph

Search for Another Location

Airport or City:

Trip Planner

Search our weather history database for the weather conditions in past years. The results will help you decide how hot, cold, wet, or windy it might be!

Date:

Astronomy

Oct. 10, 2012 Rise Set
Actual Time 7:34 AM EDT 6:53 PM EDT
Civil Twilight 7:06 AM EDT 7:21 PM EDT
Nautical Twilight 6:34 AM EDT 7:53 PM EDT
Astronomical Twilight 6:02 AM EDT 8:25 PM EDT
Moon 2:05 AM EDT (10/10) 3:58 PM EDT (10/10)
Length of Visible Light 12h 14m
Length of Day
11h 19m
Waning Crescent, 27% of the Moon is Illuminated
Oct 10
Waning Crescent
Oct 15
New
Oct 21
First Quarter
Oct 29
Full
Nov 6
Last Quarter

Hourly Weather History & Observations

Time (EDT) Temp. Windchill Dew Point Humidity Pressure Visibility Wind Dir Wind Speed Gust Speed Precip Events Conditions
12:51 AM 48.0 °F - 36.0 °F 63% 29.96 in 10.0 mi SSW 11.5 mph - N/A   Mostly Cloudy
1:51 AM 48.0 °F - 37.9 °F 68% 29.94 in 10.0 mi South 11.5 mph - N/A   Mostly Cloudy
2:51 AM 46.9 °F - 39.0 °F 74% 29.93 in 10.0 mi South 11.5 mph - N/A   Overcast
3:51 AM 46.9 °F - 39.9 °F 77% 29.90 in 10.0 mi South 11.5 mph - N/A   Mostly Cloudy
4:51 AM 48.0 °F - 39.9 °F 74% 29.88 in 10.0 mi South 15.0 mph 21.9 mph N/A   Mostly Cloudy
5:51 AM 48.9 °F - 41.0 °F 74% 29.87 in 10.0 mi South 16.1 mph 21.9 mph N/A   Overcast
6:51 AM 48.0 °F - 41.0 °F 77% 29.88 in 10.0 mi South 12.7 mph - N/A   Mostly Cloudy
7:51 AM 48.0 °F - 42.1 °F 80% 29.91 in 9.0 mi SW 9.2 mph - 0.00 in Rain Light Rain
8:51 AM 46.0 °F 42.5 °F 44.1 °F 93% 29.93 in 4.0 mi WSW 6.9 mph - 0.06 in Rain Rain
9:37 AM 46.4 °F 39.8 °F 44.6 °F 93% 29.94 in 10.0 mi West 16.1 mph - 0.01 in   Overcast
9:47 AM 46.4 °F 40.4 °F 44.6 °F 93% 29.94 in 10.0 mi WSW 13.8 mph - 0.01 in   Overcast
9:51 AM 46.4 °F 40.7 °F 44.6 °F 93% 29.94 in 10.0 mi West 12.7 mph 20.7 mph N/A   Overcast
10:12 AM 46.4 °F 41.1 °F 42.8 °F 87% 29.95 in 10.0 mi WSW 11.5 mph - N/A   Overcast
10:51 AM 48.0 °F - 44.1 °F 86% 29.97 in 10.0 mi West 11.5 mph - N/A   Overcast
11:31 AM 48.2 °F - 42.8 °F 82% 29.97 in 10.0 mi West 11.5 mph - N/A   Overcast
11:51 AM 50.0 °F - 42.1 °F 74% 29.98 in 10.0 mi West 17.3 mph 23.0 mph N/A   Mostly Cloudy
12:51 PM 50.0 °F - 39.0 °F 66% 30.00 in 10.0 mi WSW 12.7 mph - N/A   Overcast
1:51 PM 50.0 °F - 37.9 °F 63% 29.99 in 10.0 mi West 15.0 mph 24.2 mph N/A   Overcast
2:51 PM 50.0 °F - 37.0 °F 61% 30.00 in 10.0 mi West 16.1 mph 24.2 mph N/A   Overcast
3:51 PM 50.0 °F - 37.0 °F 61% 30.01 in 10.0 mi West 15.0 mph - N/A   Overcast
4:51 PM 51.1 °F - 36.0 °F 56% 30.01 in 10.0 mi West 15.0 mph 21.9 mph 0.00 in   Overcast
5:51 PM 50.0 °F - 35.1 °F 57% 30.04 in 10.0 mi West 19.6 mph 32.2 mph N/A   Mostly Cloudy
6:51 PM 48.0 °F - 32.0 °F 54% 30.08 in 10.0 mi West 20.7 mph 26.5 mph 0.00 in   Mostly Cloudy
7:51 PM 46.9 °F - 28.0 °F 48% 30.12 in 10.0 mi West 16.1 mph 25.3 mph N/A   Mostly Cloudy
8:51 PM 46.0 °F 38.8 °F 30.0 °F 54% 30.15 in 10.0 mi West 18.4 mph - N/A   Mostly Cloudy
9:51 PM 45.0 °F 37.9 °F 28.9 °F 53% 30.18 in 10.0 mi West 16.1 mph 24.2 mph N/A   Mostly Cloudy
10:51 PM 46.0 °F 39.3 °F 27.0 °F 47% 30.20 in 10.0 mi WNW 16.1 mph 21.9 mph N/A   Mostly Cloudy
11:51 PM 43.0 °F 37.7 °F 30.9 °F 62% 30.21 in 10.0 mi WSW 9.2 mph - N/A   Mostly Cloudy